Previsão horária em Kaba

Hoje, 21 Junho, Segunda-feira

Tempo Temperatura Precipitação Vento Pressão Humidade
00:00 +22°C° 0 mm 1 m/s 749 mmHg 70%
01:00 +21°C° 0 mm 2 m/s 749 mmHg 71%
02:00 +21°C° 0 mm 1 m/s 749 mmHg 74%
03:00 +21°C° 0 mm 1 m/s 749 mmHg 77%
04:00 +20°C° 0 mm 1 m/s 749 mmHg 79%
05:00 +22°C° 0 mm 1 m/s 749 mmHg 75%
06:00 +23°C° 0 mm 1 m/s 749 mmHg 70%
07:00 +25°C° 0 mm 1 m/s 749 mmHg 65%
08:00 +27°C° 0 mm 1 m/s 750 mmHg 60%
09:00 +28°C° 0 mm 1 m/s 750 mmHg 55%
10:00 +30°C° 0 mm 1 m/s 750 mmHg 50%
11:00 +31°C° 0 mm 1 m/s 749 mmHg 47%
12:00 +32°C° 0 mm 1 m/s 749 mmHg 45%
13:00 +32°C° 0 mm 1 m/s 749 mmHg 42%
14:00 +33°C° 0 mm 1 m/s 749 mmHg 41%
15:00 +33°C° 0 mm 1 m/s 748 mmHg 40%
16:00 +33°C° 0 mm 1 m/s 748 mmHg 39%
17:00 +31°C° 0 mm 1 m/s 748 mmHg 46%
18:00 +30°C° 0 mm 1 m/s 748 mmHg 52%
19:00 +28°C° 0 mm 2 m/s 748 mmHg 58%
20:00 +27°C° 0.1 mm 2 m/s 748 mmHg 62%
21:00 +26°C° 0.1 mm 2 m/s 748 mmHg 66%
22:00 +24°C° 0.1 mm 3 m/s 748 mmHg 70%
23:00 +24°C° 0.3 mm 2 m/s 748 mmHg 75%

Amanhã, 22 Junho, Terça-feira

Tempo Temperatura Precipitação Vento Pressão Humidade
00:00 +23°C° 0.3 mm 2 m/s 749 mmHg 80%
01:00 +21°C° 0.3 mm 2 m/s 749 mmHg 85%
02:00 +21°C° 0.1 mm 2 m/s 749 mmHg 85%
03:00 +21°C° 0.1 mm 2 m/s 749 mmHg 86%
04:00 +20°C° 0.1 mm 2 m/s 749 mmHg 86%
05:00 +23°C° 0 mm 2 m/s 749 mmHg 82%
06:00 +24°C° 0 mm 3 m/s 749 mmHg 77%
07:00 +25°C° 0 mm 3 m/s 750 mmHg 73%
08:00 +27°C° 0 mm 3 m/s 750 mmHg 67%
09:00 +29°C° 0 mm 3 m/s 750 mmHg 61%
10:00 +30°C° 0 mm 3 m/s 750 mmHg 55%
11:00 +31°C° 0 mm 3 m/s 750 mmHg 52%
12:00 +33°C° 0 mm 3 m/s 749 mmHg 48%
13:00 +34°C° 0 mm 3 m/s 749 mmHg 44%
14:00 +35°C° 0 mm 3 m/s 749 mmHg 43%
15:00 +35°C° 0 mm 3 m/s 749 mmHg 41%
16:00 +35°C° 0 mm 2 m/s 749 mmHg 40%
17:00 +34°C° 0 mm 2 m/s 749 mmHg 45%
18:00 +31°C° 0 mm 2 m/s 749 mmHg 51%
19:00 +30°C° 0 mm 2 m/s 749 mmHg 57%
20:00 +28°C° 0 mm 2 m/s 749 mmHg 60%
21:00 +27°C° 0 mm 2 m/s 749 mmHg 64%
22:00 +25°C° 0 mm 2 m/s 750 mmHg 68%
23:00 +25°C° 0 mm 2 m/s 750 mmHg 69%

Depois de amanhã, 23 Junho, Quarta-feira

Tempo Temperatura Precipitação Vento Pressão Humidade
00:00 +24°C° 0 mm 2 m/s 750 mmHg 71%
01:00 +24°C° 0 mm 1 m/s 750 mmHg 72%
02:00 +23°C° 0 mm 1 m/s 750 mmHg 74%
03:00 +23°C° 0 mm 1 m/s 751 mmHg 76%
04:00 +23°C° 0 mm 1 m/s 751 mmHg 78%
05:00 +24°C° 0 mm 1 m/s 751 mmHg 72%
06:00 +26°C° 0 mm 1 m/s 751 mmHg 67%
07:00 +28°C° 0 mm 1 m/s 752 mmHg 62%
08:00 +29°C° 0 mm 2 m/s 752 mmHg 58%
09:00 +31°C° 0 mm 2 m/s 752 mmHg 53%
10:00 +34°C° 0 mm 2 m/s 752 mmHg 48%
11:00 +35°C° 0 mm 2 m/s 752 mmHg 43%
12:00 +36°C° 0 mm 3 m/s 752 mmHg 37%
13:00 +37°C° 0 mm 3 m/s 752 mmHg 32%
14:00 +37°C° 0 mm 3 m/s 752 mmHg 31%
15:00 +37°C° 0 mm 3 m/s 752 mmHg 31%
16:00 +36°C° 0 mm 3 m/s 752 mmHg 31%
17:00 +34°C° 0 mm 3 m/s 752 mmHg 38%
18:00 +31°C° 0 mm 2 m/s 752 mmHg 45%
19:00 +29°C° 0 mm 2 m/s 752 mmHg 52%
20:00 +28°C° 0 mm 2 m/s 753 mmHg 55%
21:00 +27°C° 0 mm 2 m/s 753 mmHg 58%
22:00 +26°C° 0 mm 1 m/s 753 mmHg 61%
23:00 +26°C° 0 mm 1 m/s 753 mmHg 64%

24 Junho, Quinta-feira

Tempo Temperatura Precipitação Vento Pressão Humidade
00:00 +25°C° 0 mm 1 m/s 753 mmHg 67%
01:00 +25°C° 0 mm 1 m/s 753 mmHg 71%
02:00 +24°C° 0 mm 2 m/s 753 mmHg 73%
03:00 +24°C° 0 mm 2 m/s 753 mmHg 75%
04:00 +23°C° 0 mm 2 m/s 753 mmHg 77%
05:00 +25°C° 0 mm 2 m/s 754 mmHg 71%
06:00 +27°C° 0 mm 2 m/s 754 mmHg 66%
07:00 +28°C° 0 mm 1 m/s 754 mmHg 60%
08:00 +30°C° 0 mm 1 m/s 754 mmHg 55%
09:00 +32°C° 0 mm 1 m/s 754 mmHg 51%
10:00 +34°C° 0 mm 1 m/s 754 mmHg 46%
11:00 +35°C° 0 mm 1 m/s 754 mmHg 42%
12:00 +34°C° 0 mm 0 m/s 754 mmHg 39%
13:00 +35°C° 0 mm 0 m/s 753 mmHg 35%
14:00 +37°C° 0 mm 1 m/s 753 mmHg 34%
15:00 +37°C° 0 mm 1 m/s 753 mmHg 33%
16:00 +37°C° 0 mm 1 m/s 753 mmHg 33%
17:00 +35°C° 0 mm 1 m/s 753 mmHg 38%
18:00 +34°C° 0 mm 1 m/s 752 mmHg 44%
19:00 +32°C° 0 mm 2 m/s 752 mmHg 50%
20:00 +30°C° 0.1 mm 2 m/s 752 mmHg 54%
21:00 +29°C° 0.1 mm 2 m/s 752 mmHg 57%
22:00 +28°C° 0.1 mm 3 m/s 752 mmHg 60%
23:00 +27°C° 0.2 mm 3 m/s 752 mmHg 63%

25 Junho, Sexta-feira

Tempo Temperatura Precipitação Vento Pressão Humidade
00:00 +26°C° 0.2 mm 3 m/s 752 mmHg 66%
01:00 +26°C° 0.2 mm 3 m/s 752 mmHg 69%
02:00 +25°C° 0.1 mm 2 m/s 752 mmHg 70%
03:00 +25°C° 0.1 mm 2 m/s 751 mmHg 72%
04:00 +24°C° 0.1 mm 2 m/s 751 mmHg 73%
05:00 +26°C° 0.1 mm 2 m/s 752 mmHg 68%
06:00 +27°C° 0.1 mm 3 m/s 752 mmHg 64%
07:00 +28°C° 0.1 mm 3 m/s 752 mmHg 59%
08:00 +30°C° 0 mm 3 m/s 752 mmHg 52%
09:00 +33°C° 0 mm 3 m/s 752 mmHg 45%
10:00 +35°C° 0 mm 3 m/s 751 mmHg 38%
11:00 +36°C° 0 mm 4 m/s 751 mmHg 37%
12:00 +37°C° 0 mm 5 m/s 751 mmHg 35%
13:00 +37°C° 0 mm 5 m/s 751 mmHg 33%
14:00 +38°C° 0 mm 6 m/s 751 mmHg 35%
15:00 +36°C° 0 mm 6 m/s 751 mmHg 38%
16:00 +35°C° 0 mm 7 m/s 751 mmHg 40%
17:00 +33°C° 0 mm 6 m/s 751 mmHg 46%
18:00 +30°C° 0 mm 5 m/s 751 mmHg 52%
19:00 +28°C° 0 mm 4 m/s 751 mmHg 58%
20:00 +26°C° 0 mm 3 m/s 752 mmHg 61%
21:00 +25°C° 0 mm 3 m/s 752 mmHg 65%
22:00 +23°C° 0 mm 2 m/s 752 mmHg 68%
23:00 +23°C° 0 mm 2 m/s 752 mmHg 69%

26 Junho, Sábado

Tempo Temperatura Precipitação Vento Pressão Humidade
00:00 +21°C° 0 mm 2 m/s 752 mmHg 70%
01:00 +21°C° 0 mm 2 m/s 752 mmHg 70%
02:00 +20°C° 0 mm 2 m/s 752 mmHg 71%
03:00 +21°C° 0 mm 1 m/s 752 mmHg 71%
04:00 +21°C° 0 mm 1 m/s 752 mmHg 72%
05:00 +22°C° 0.1 mm 1 m/s 752 mmHg 68%
06:00 +23°C° 0.1 mm 1 m/s 752 mmHg 65%
07:00 +25°C° 0.1 mm 1 m/s 752 mmHg 61%
08:00 +26°C° 0.1 mm 1 m/s 752 mmHg 56%
09:00 +27°C° 0.1 mm 2 m/s 752 mmHg 51%
10:00 +29°C° 0.1 mm 2 m/s 752 mmHg 47%
11:00 +30°C° 0.1 mm 1 m/s 751 mmHg 44%
12:00 +31°C° 0.1 mm 1 m/s 751 mmHg 42%
13:00 +32°C° 0.1 mm 1 m/s 751 mmHg 40%
14:00 +30°C° 0.6 mm 1 m/s 750 mmHg 47%
15:00 +29°C° 0.6 mm 2 m/s 750 mmHg 54%
16:00 +27°C° 0.6 mm 3 m/s 750 mmHg 61%
17:00 +26°C° 1.4 mm 3 m/s 750 mmHg 69%
18:00 +24°C° 1.4 mm 3 m/s 750 mmHg 76%
19:00 +21°C° 1.4 mm 3 m/s 751 mmHg 84%
20:00 +20°C° 1.3 mm 3 m/s 751 mmHg 87%
21:00 +19°C° 1.3 mm 2 m/s 751 mmHg 90%
22:00 +19°C° 1.3 mm 1 m/s 752 mmHg 93%
23:00 +19°C° 0 mm 1 m/s 752 mmHg 93%
Mostrar mais

Necessitamos do seu Consentimento

A Meteoprog e os seus Fornecedores de Serviços podem armazenar e aceder a dados pessoais como cookies, identificadores do dispositivo ou outras tecnologias semelhantes existentes no seu dispositivo e processar estes dados para personalizar conteúdos e anúncios, assim como funcionalidades nas redes sociais e análise de tráfego.

  • Armazenar e/ou aceder a informações no seu dispositivo

    Os cookies, identificadores do dispositivo ou outras informações podem ser armazenados ou acedidos no seu dispositivo, para os fins acima indicados.

  • Anúncios e conteúdos personalizados, medição de anúncios e conteúdos, dados sobre o público-alvo e desenvolvimento de produtos

    Os anúncios e os conteúdos podem ser personalizados com base num perfil. Podem ser adicionados dados adicionais para uma maior personalização dos anúncios e dos conteúdos. A eficácia dos anúncios e dos conteúdos pode ser medida. Podem ser obtidas informações sobre o público que visualizou os anúncios e os conteúdos. Estes dados podem ser usados para desenvolver ou melhorar sistemas, softwares ou a experiência do utilizador.

Ao clicar em "Eu concordo”, permitirá o uso de cookies, identificadores do dispositivo e web beacons mencionados ou outras tecnologias semelhantes. As configurações do navegador do seu dispositivo podem ser alteradas.

Para certos fins, podem ser invocados interesses legítimos ao invés de consentimento. Pode ler mais informação sobre este assunto na nossa Política de Privacidade e Cookies.